Regional Weather Roundup
Issued by NWS

Home | Current Version | Previous Version | Text Only | Print | Product List | Glossary On
Versions: 1 2 3 4 5 6 7 8 9 10 11 12 13 14 15 16 17 18 19 20 21 22 23 24 25 26 27 28 29 30 31 32 33 34 35 36 37 38 39 40 41 42 43 44 45 46 47 48 49 50
000
ASCA44 KEWX 301720
RWRMX

LATIN AMERICA AND CARIBBEAN REGIONAL WEATHER ROUNDUP
NATIONAL WEATHER SERVICE AUSTIN/SAN ANTONIO TX
1200 PM CDT TUE JUN 30 2015

NOTE: "FAIR" INDICATED FEW OR NO CLOUDS BELOW 12,000 FEET WITH NO
SIGNIFICANT WEATHER AND/OR OBSTRUCTIONS TO VISIBILITY.

BAJA CALIFORNIA

CITY           SKY/WX    TMP DP  RH WIND       PRES   REMARKS
LORETO         MOSUNNY   88  72  58 CALM      29.84  HX  94
LA PAZ         SUNNY     86  61  42 CALM      29.90
MEXICALI       MOSUNNY   95  66  38 SE22      29.85  BLWGDUSTHX  98
S.J. DEL CABO  MOSUNNY   91  59  33 NW9       29.88F HX  90
TIJUANA        MOSUNNY   77  61  57 SW6       29.99R

NORTHWESTERN MEXICO

CITY           SKY/WX    TMP DP  RH WIND       PRES   REMARKS
CULIACAN       PTSUNNY   90  75  62 N6        29.90  HX 100
DURANGO        CLOUDY    68  57  68 N5        30.26
GUAYMAS        PTSUNNY   90  79  70 CALM      29.84  HX 105
HERMOSILLO     PTSUNNY   90  68  48 S5        29.92  HX  93
CD. JUAREZ     PTSUNNY   84  50  30 E14       30.12R
LOS MOCHIS     PTSUNNY   88  73  62 SW9       29.88F HX  96
OBREGON        PTSUNNY   86  70  58 E2        29.86  HX  90

NORTHEASTERN MEXICO

CITY           SKY/WX    TMP DP  RH WIND       PRES   REMARKS
CHIHUAHUA      PTSUNNY   82  55  39 CALM      30.13
MATAMOROS      CLOUDY    77  75  94 E7        30.06
MONCLOVA         N/A    N/A N/A N/A MISG        N/A
MONTERREY      PTSUNNY   79  70  73 SE10      30.02S
NUEVO LAREDO   PTSUNNY   90  72  55 SE8       30.00  HX  96
PIEDRAS NEGRAS PTSUNNY   84  72  65 SE7       30.04F
REYNOSA        CLOUDY    77  68  73 SE8       30.04
SALTILLO       PTSUNNY   79  64  61 N7        30.22S
TORREON        MOSUNNY   81  63  54 SE3       30.12F
CD. VICTORIA   PTSUNNY   75  70  83 SW5G18    30.04

WESTERN MEXICO

CITY           SKY/WX    TMP DP  RH WIND       PRES   REMARKS
AGUASCALIENTES PTSUNNY   64  54  68 SW6       30.27
COLIMA         MOSUNNY   82  72  69 CALM      30.03R
DEL BAJIO        N/A    N/A N/A N/A MISG        N/A
GUADALAJARA    PTSUNNY   75  59  57 E7        30.18
MANZANILLO     MOSUNNY   93  79  62 SW7       29.87S HX 110
MAZATLAN       PTSUNNY   84  72  65 S8        29.87F
P. VALLARTA    MOSUNNY   88  73  62 NE3       29.89S HX  96
URUAPAN        PTSUNNY   72  59  64 SE7       30.22
ZACATECAS      PTSUNNY   63  54  72 NE12      30.29R

CENTRAL MEXICO

CITY           SKY/WX    TMP DP  RH WIND       PRES   REMARKS
CUERNAVACA     PTSUNNY   75  63  64 CALM      30.18F
MEXICO CITY    PTSUNNY   66  52  59 E6        30.35S
MORELIA        PTSUNNY   70  57  64 S12       30.25
POZA RICA      CLOUDY    79  73  83 NE7       29.99S
PUEBLA         PTSUNNY   66  55  68 N9        30.36F
QUERETARO      CLOUDY    66  57  72 S3        30.32F HAZE
S. LUIS POTOSI CLOUDY    66  55  68 SE5       30.25S
TAMPICO        LGT RAIN  75  72  88 N8        29.99S
TOLUCA         PTSUNNY   63  55  77 SE8       30.42F

SOUTHERN MEXICO

CITY           SKY/WX    TMP DP  RH WIND       PRES   REMARKS
ACAPULCO       MOSUNNY   90  75  62 S10       29.86F HX 100
B. DE HUATULCO PTSUNNY   88  75  66 S8        29.94S HX  97
OAXACA         PTSUNNY   73  59  60 SW3       30.23F
P. ESCONDIDO   MOSUNNY   88  75  66 SW8       29.96R HX  97
VERACRUZ       MOSUNNY   88  73  62 SE6       29.94F HX  96
ZIHUATANEJO    MOSUNNY   93  75  55 SW12      29.86F HX 104

YUCATAN PENINSULA

CITY           SKY/WX    TMP DP  RH WIND       PRES   REMARKS
CAMPECHE       MOSUNNY   90  73  58 E12G25    29.95F HX  98
CANCUN         MOSUNNY   86  79  79 SE12      30.07F HX  99
CHETUMAL       PTSUNNY   86  75  70 E17       30.04  HX  95
CD. DEL CARMEN MOSUNNY   90  75  62 E21       29.94  HX 100
COZUMEL        PTSUNNY   84  77  79 SE15      30.07S HX  94
MERIDA         PTSUNNY   91  72  52 SE24      30.02S HX  98
MINATITLAN     MOSUNNY   86  68  54 CALM      29.88
TAPACHULA      MOSUNNY   91  79  66 CALM      29.90F HX 107
TUX. GUTIERREZ MOSUNNY   77  66  69 CALM      30.01F
VILLAHERMOSA   MOSUNNY   90  73  58 E22       29.92F HX  98

CENTRAL AMERICA

CITY           SKY/WX    TMP DP  RH WIND       PRES   REMARKS
BELIZE CITY    MOSUNNY   88  79  74 E15       30.01S HX 102
MANAGUA        MOSUNNY   91  68  46 E18       29.89  HX  95

CARIBBEAN

CITY           SKY/WX    TMP DP  RH WIND       PRES   REMARKS
ARUBA          MOSUNNY   88  77  70 E20       29.94F HX 100
CURACAO        MOSUNNY   88  73  62 E13       30.00S HX  96
KINGSTON       MOSUNNY   88  77  70 SE21      30.00F HX 100
NASSAU         MOSUNNY   88  72  58 SE13      30.18S HX  94
SAN JUAN       PTSUNNY   82  75  78 E15G23    30.12
SANTO DOMINGO  MOSUNNY   90  73  58 SE9       30.06S HX  98
ST. CROIX      PTSUNNY   88  72  58 E20       30.10F HX  94
ST. KITTS      MOSUNNY   84  75  74 NE18      30.09S HX  92
ST. MAARTEN    MOSUNNY   86  72  62 E16       30.09S HX  92
ST. THOMAS     MOSUNNY   86  73  66 E18       30.09  HX  93

$$



USA.gov is the U.S. government's official web portal to all federal, state and local government web resources and services.